GFSNIL_sfc_30mbdewp_060.txt.gz
Dewpoint
70 67 67 69 63 66 64 67 71 73 73 73 72 72 71 72 72 71 71 70 70 68
70 69 65 67 67 66 66 68 72 72 73 72 72 72 72 71 71 71 71 71 71 70
67 70 68 66 68 66 67 65 73 73 72 72 72 72 72 71 71 71 71 71 71 71
70 68 68 68 66 70 68 72 69 71 71 72 71 72 72 71 71 70 71 71 71 71
71 69 68 66 69 70 71 70 72 71 72 70 71 72 72 72 69 71 70 71 70 71
70 70 69 68 67 70 71 72 71 73 72 72 71 71 72 73 72 72 72 72 72 71
70 70 70 70 68 71 71 71 72 72 73 73 72 71 71 73 73 72 71 72 71 72
70 70 70 69 70 68 70 72 72 73 73 73 73 71 70 71 72 72 72 71 72 72
70 70 70 70 70 71 70 71 73 73 73 73 72 70 68 70 70 72 72 72 72 73
69 70 70 71 70 72 71 72 72 73 73 73 73 69 66 67 70 70 71 72 72 72
68 69 71 71 71 71 72 72 72 73 73 73 73 72 67 65 68 69 70 71 71 72
68 69 70 71 71 71 71 72 72 73 73 73 73 72 70 66 67 68 69 69 71 72
69 69 70 71 71 72 72 72 72 72 73 73 73 72 70 68 69 67 68 69 71 69
71 70 71 72 72 72 72 72 73 72 73 74 74 74 70 66 70 69 68 68 68 70

GFSNIL_sfc_30mbdewp_063.txt.gz
Dewpoint
71 66 67 69 69 69 69 69 71 72 72 71 73 70 71 70 71 70 71 69 70 67
70 68 67 67 69 69 69 69 70 73 71 71 72 72 71 70 71 71 71 71 70 70
68 71 68 67 67 69 66 69 70 73 72 72 72 71 72 70 71 70 69 68 70 69
65 69 70 68 65 69 67 70 72 72 73 73 72 73 72 70 71 70 69 70 70 70
67 66 69 68 68 65 68 69 72 72 72 72 72 72 72 71 70 70 70 70 70 70
69 66 65 66 68 67 68 67 71 72 72 72 71 71 72 72 71 70 71 71 71 70
69 69 66 66 65 69 68 72 69 72 71 72 71 71 71 72 72 71 71 72 71 71
70 69 70 67 67 64 70 68 73 71 73 72 72 71 71 71 72 72 71 71 71 72
70 70 70 70 69 67 65 71 68 70 71 73 72 71 70 70 72 73 72 71 72 72
69 70 70 70 70 70 66 68 71 70 71 71 72 71 70 70 69 70 72 72 72 72
69 69 70 70 70 69 70 67 67 70 72 72 72 72 70 69 69 69 70 72 72 72
68 69 70 69 70 69 70 70 69 70 71 72 72 72 71 68 67 68 69 70 71 72
68 69 69 70 69 70 69 69 71 70 71 72 72 72 71 69 68 67 67 69 70 71
69 68 70 70 70 70 70 70 70 71 71 72 73 73 71 69 71 69 67 67 68 69

GFSNIL_sfc_30mbdewp_069.txt.gz
Dewpoint
65 66 67 67 67 68 68 70 71 70 70 71 69 69 70 70 70 70 68 69 69 68
66 65 65 67 68 68 69 70 70 71 70 70 71 70 70 70 69 70 69 69 69 68
67 68 66 67 68 68 69 69 70 71 71 70 71 71 70 70 70 70 70 70 70 69
65 68 69 67 67 68 69 69 69 70 71 70 70 71 70 69 69 69 70 69 69 68
64 65 67 68 67 67 67 69 69 69 71 71 70 70 70 70 70 69 68 69 68 68
64 64 65 67 68 67 67 67 68 69 70 71 71 70 70 70 70 70 69 69 69 68
65 64 64 64 67 68 67 66 67 70 71 71 71 71 70 71 70 70 70 70 70 70
66 65 64 63 64 66 68 67 66 67 71 71 71 71 71 71 71 70 70 70 70 70
66 67 66 64 63 63 65 67 67 66 67 70 71 70 70 71 71 71 70 70 70 71
67 67 68 67 65 63 63 64 64 66 67 67 69 70 69 69 70 69 69 69 69 70
67 67 68 69 68 66 64 64 63 63 64 67 68 68 69 69 70 70 70 70 70 70
68 69 68 68 68 69 67 66 65 64 63 64 65 68 68 68 69 69 69 70 70 70
66 70 70 70 69 69 69 68 68 67 65 65 66 65 67 68 69 69 69 70 70 69
67 69 68 70 70 70 69 69 69 69 68 66 67 68 65 66 70 68 68 68 68 69

GFSNIL_sfc_30mbdewp_072.txt.gz
Dewpoint
66 66 66 66 66 66 67 69 70 70 70 71 70 69 69 69 70 70 68 68 69 68
66 66 66 67 67 67 68 69 70 70 70 70 71 70 70 70 69 70 70 70 69 69
66 66 66 67 67 68 68 69 70 70 71 70 70 71 70 70 70 70 70 70 70 69
66 66 66 66 67 68 68 69 69 70 70 70 70 71 70 70 70 70 70 70 69 69
65 67 67 66 66 67 68 69 69 70 70 70 70 71 71 70 70 69 69 69 70 69
65 65 66 67 67 67 67 67 68 69 69 70 71 71 71 70 70 70 69 69 69 69
64 64 65 66 67 67 67 67 67 68 69 70 70 71 71 71 70 70 70 70 70 70
65 65 65 65 66 67 67 67 67 67 69 69 71 71 71 71 70 70 70 70 70 70
66 66 65 65 64 65 67 67 67 67 67 68 69 70 70 71 71 71 70 70 70 71
66 67 67 66 65 64 64 66 67 66 66 67 69 68 69 70 71 71 70 70 70 70
66 66 67 67 66 65 64 64 65 66 66 66 67 67 67 68 70 70 70 70 70 70
67 67 67 68 68 68 66 65 64 64 65 65 66 65 66 67 68 69 69 70 70 70
66 68 68 68 68 69 69 67 66 65 65 64 64 64 64 65 67 66 67 69 70 69
64 66 68 70 70 69 69 69 69 68 67 67 65 65 63 63 67 67 66 66 66 70

GFSNIL_sfc_30mbdewp_075.txt.gz
Dewpoint
69 67 67 68 67 68 67 68 71 72 72 72 72 71 71 70 69 70 70 70 69 68
69 68 66 68 69 68 69 68 71 71 72 72 72 72 72 69 71 72 71 70 71 69
67 68 68 69 69 69 69 70 69 71 71 71 72 72 72 70 71 71 70 70 71 71
66 67 68 68 69 70 70 71 71 71 71 71 71 72 72 72 71 71 71 71 71 70
67 67 66 67 68 68 70 70 71 72 72 71 71 72 72 71 70 70 70 70 71 70
66 67 66 67 67 68 68 69 69 70 71 71 71 72 72 72 71 71 71 70 70 70
65 66 66 68 68 68 68 68 69 70 70 70 71 72 71 72 72 72 71 71 70 70
66 66 66 67 68 68 68 68 68 68 69 69 69 69 70 71 71 71 71 71 71 71
66 67 67 67 68 68 68 68 68 68 68 68 67 66 67 70 70 71 71 70 71 71
67 67 68 67 67 67 68 68 68 68 67 68 69 67 66 69 67 69 70 71 71 70
67 67 68 68 68 68 67 67 68 68 68 68 68 67 67 68 69 69 70 70 71 71
68 68 67 67 68 68 68 67 67 67 68 68 69 66 66 66 67 66 69 70 70 71
65 67 69 68 69 69 69 68 68 67 67 67 68 68 65 64 65 65 65 68 70 70
63 65 65 70 71 70 70 70 69 69 69 69 68 68 65 63 66 65 66 66 65 66

GFSNIL_sfc_30mbdewp_078.txt.gz
Dewpoint
70 68 66 66 63 63 64 65 67 71 68 69 69 70 71 67 66 67 65 66 67 63
70 69 65 64 66 65 66 64 68 70 69 68 69 69 70 67 68 68 68 66 66 66
68 69 69 67 67 66 65 67 66 70 70 69 70 70 71 67 68 69 68 66 66 68
66 67 69 67 67 68 67 67 69 70 70 70 69 70 71 70 68 69 68 68 68 69
68 67 66 67 67 68 68 68 69 70 71 68 68 69 71 70 67 68 68 68 68 68
66 66 66 66 67 67 68 68 67 69 70 70 68 69 70 71 70 69 68 68 68 68
65 66 67 66 67 67 68 68 67 67 69 70 69 69 70 71 71 69 68 70 70 69
66 66 66 67 67 67 68 68 69 67 67 69 69 68 70 70 70 70 70 70 71 70
65 66 67 67 68 67 68 69 69 68 67 66 64 63 66 68 69 70 70 69 70 70
67 67 67 68 68 68 68 68 69 69 68 68 67 64 63 65 66 66 67 69 69 68
68 68 69 69 69 69 69 68 68 68 69 69 69 67 65 65 67 66 68 68 68 70
62 65 68 68 69 70 70 69 69 69 69 69 70 68 66 66 66 65 67 68 69 69
60 62 64 67 69 70 70 69 69 68 69 69 69 70 67 65 66 65 65 67 69 69
57 60 62 64 66 69 71 70 70 69 69 70 69 70 67 65 67 65 64 64 64 65

GFSNIL_sfc_30mbdewp_081.txt.gz
Dewpoint
70 68 65 66 66 65 66 66 71 69 68 69 68 69 69 68 68 67 66 66 68 66
71 70 65 65 66 64 67 67 67 66 67 68 68 68 69 68 69 69 69 66 66 66
69 70 69 66 66 64 65 65 69 67 69 69 67 68 69 68 68 68 67 64 69 67
68 68 70 68 67 67 67 67 67 68 68 69 69 68 70 69 69 69 68 68 67 67
68 68 67 69 68 68 68 68 67 68 69 70 68 69 69 68 65 66 67 67 67 66
67 68 67 67 68 69 69 69 67 68 70 69 67 69 69 69 69 68 68 68 67 66
67 67 67 68 69 68 70 69 69 68 69 70 68 67 68 69 70 70 68 68 68 68
67 67 67 68 68 68 69 70 70 70 69 69 68 67 68 68 69 70 70 69 69 70
68 69 68 68 68 69 69 70 71 71 70 69 66 63 64 68 68 69 71 69 70 70
66 69 69 70 70 69 69 70 71 71 70 71 71 66 62 65 66 67 69 70 71 69
62 65 67 69 70 70 71 71 70 71 71 72 71 69 66 63 67 67 68 69 70 71
59 61 64 65 67 70 70 71 71 71 71 71 72 70 67 66 66 65 67 68 69 69
59 59 61 62 64 67 70 71 71 70 71 71 71 71 70 67 68 67 66 68 70 69
55 57 58 60 63 65 65 68 71 71 72 72 71 71 69 67 70 68 66 66 65 66

GFSNIL_sfc_30mbdewp_084.txt.gz
Dewpoint
72 70 68 68 69 67 67 69 71 70 72 72 70 70 70 71 70 70 69 68 69 69
73 72 67 66 69 67 70 68 71 70 71 70 70 70 71 70 70 70 70 70 69 70
73 73 73 72 69 69 71 70 70 70 70 70 71 70 71 71 69 70 70 69 69 69
72 72 73 72 71 69 70 71 69 60 67 70 70 71 70 69 69 69 69 70 69 69
72 71 72 72 71 71 71 71 70 71 70 70 70 70 70 70 68 68 69 69 68 68
70 70 70 72 72 72 72 72 71 70 71 71 72 71 71 70 71 70 69 70 69 69
69 70 70 71 72 72 72 72 72 72 72 72 72 72 71 72 71 72 70 71 71 71
71 70 70 70 71 71 72 72 73 72 72 72 72 70 70 71 72 70 70 72 72 72
69 70 71 70 69 70 71 72 72 72 72 72 69 67 66 69 69 71 72 70 72 72
65 67 67 69 71 71 70 70 71 72 72 72 72 70 67 64 69 71 71 71 72 72
61 64 65 67 67 68 71 72 71 71 72 72 73 72 70 68 67 68 69 70 71 72
61 61 62 63 64 66 67 68 71 72 71 72 72 72 70 69 69 68 68 68 70 70
58 59 59 61 63 66 66 67 69 69 72 72 71 72 71 69 71 70 70 70 69 68
57 57 58 59 61 63 64 66 66 68 70 72 72 73 71 69 71 71 70 70 69 69

GFSNIL_sfc_30mbdewp_087.txt.gz
Dewpoint
70 69 67 68 68 69 65 67 68 69 70 71 70 70 71 70 70 69 69 67 67 66
71 70 68 68 69 68 68 70 71 70 71 71 71 70 71 70 71 70 69 68 68 68
71 71 71 72 71 70 69 69 69 69 69 71 71 71 70 69 70 70 70 70 69 69
72 72 72 71 72 70 69 69 68 69 66 69 70 70 71 70 69 70 69 69 69 67
72 72 72 73 72 72 69 69 68 64 61 66 69 72 70 69 70 69 68 68 70 67
72 72 72 72 72 72 72 71 71 69 68 70 70 70 71 70 70 71 69 68 69 69
68 70 71 73 72 72 72 72 71 72 71 71 71 71 72 71 69 69 71 70 71 70
68 70 71 70 72 71 72 72 72 71 72 73 72 71 71 72 71 71 70 71 70 71
68 68 68 71 72 71 70 70 72 72 72 71 72 71 70 70 70 71 70 69 70 71
66 66 67 68 67 68 69 72 71 71 71 71 72 71 69 67 67 69 70 71 71 70
61 62 64 65 65 66 67 68 70 71 72 71 72 71 70 70 68 67 68 69 72 72
61 61 61 61 63 65 66 66 67 68 70 70 71 71 70 69 69 69 69 69 69 69
59 57 58 61 61 63 64 65 67 67 68 70 71 71 69 69 70 70 70 70 70 69
54 55 56 56 58 59 58 61 63 66 66 68 70 67 66 66 68 69 70 71 70 70

GFSNIL_sfc_30mbdewp_093.txt.gz
Dewpoint
69 66 66 68 68 68 67 68 69 70 70 69 70 68 66 69 69 69 69 68 68 66
69 68 67 68 68 68 69 68 68 69 71 70 70 69 70 70 69 70 69 68 68 67
69 69 68 68 68 67 68 69 67 68 69 70 71 71 69 70 70 68 69 69 69 68
69 69 70 69 69 69 69 68 68 70 70 70 70 70 70 69 69 69 69 69 68 68
69 70 70 69 70 70 70 69 68 69 68 68 69 70 70 70 70 69 68 67 68 68
69 70 70 70 70 70 71 70 69 68 67 67 66 67 70 70 70 69 69 69 69 68
68 68 69 70 70 71 71 70 69 68 67 66 65 64 67 69 70 70 69 70 70 69
68 68 68 68 68 70 71 71 70 69 69 69 69 70 70 70 70 70 70 70 69 70
66 66 66 66 67 67 67 69 70 71 71 70 71 72 71 70 70 70 70 70 70 70
65 64 64 64 64 65 65 66 67 68 70 70 70 71 70 69 70 70 69 70 69 70
63 63 63 63 62 63 63 63 65 66 66 67 69 68 68 68 68 69 68 68 69 69
58 61 60 61 61 62 59 59 60 64 66 67 68 63 65 68 69 69 69 70 70 69
51 53 54 55 57 60 57 58 60 62 67 65 63 59 59 62 64 61 62 65 67 66
48 48 49 52 54 53 54 53 62 64 64 63 62 61 57 56 55 55 54 57 59 62

GFSNIL_sfc_30mbdewp_096.txt.gz
Dewpoint
67 67 67 67 67 68 68 68 69 70 70 70 69 68 67 67 69 69 69 68 68 66
68 67 66 67 68 68 69 69 68 69 70 70 70 70 69 69 69 70 70 68 68 68
69 68 68 68 68 68 68 69 69 67 68 70 70 70 69 69 70 69 69 69 69 69
68 69 69 68 68 69 69 69 69 68 69 70 70 70 71 70 69 69 69 69 69 69
68 69 69 69 69 70 70 70 69 69 69 69 69 70 70 70 70 69 68 68 68 68
69 69 69 70 70 70 70 70 69 69 68 68 67 68 69 70 70 70 70 69 69 69
68 68 69 69 70 70 71 71 70 69 68 68 67 66 65 67 69 70 70 70 70 70
67 67 67 67 67 68 69 70 71 70 69 68 67 67 68 68 69 70 70 70 70 70
66 65 65 66 66 66 66 66 67 69 70 70 70 70 70 70 70 71 71 70 71 71
64 64 64 64 63 63 63 64 65 66 67 67 69 66 68 69 70 70 70 70 70 70
63 63 63 62 61 60 61 61 61 64 67 67 65 62 65 66 68 69 69 69 69 69
56 57 59 61 61 59 58 59 59 63 67 60 59 57 58 64 66 65 65 67 67 67
50 52 54 56 58 57 58 60 63 63 63 61 59 51 54 58 59 57 59 60 62 62
47 48 49 49 49 49 49 53 59 55 54 52 50 48 47 50 54 55 56 57 56 58

GFSNIL_sfc_30mbdewp_102.txt.gz
Dewpoint
68 65 64 64 66 65 66 65 68 68 68 69 68 69 70 68 66 67 65 67 68 63
67 66 65 66 67 66 67 68 69 69 68 69 69 70 70 67 69 69 69 66 67 66
66 66 65 66 65 67 69 70 70 70 70 68 68 68 69 67 68 70 67 66 67 68
66 66 67 66 65 67 67 69 70 71 71 70 69 69 70 70 68 69 67 68 68 68
64 66 65 67 66 68 67 69 69 69 71 69 68 69 70 68 66 68 67 66 67 67
65 64 65 66 67 68 67 68 68 69 69 67 69 69 69 69 68 68 67 66 66 66
65 65 66 67 68 68 70 67 67 68 69 68 68 69 69 69 69 68 67 68 67 67
69 70 69 68 69 69 69 68 69 68 69 70 69 67 70 70 70 69 68 69 68 67
67 69 69 70 70 70 70 71 71 71 70 70 68 64 66 69 69 70 69 68 69 68
67 67 68 68 68 69 69 69 69 69 70 67 65 61 65 66 70 70 68 69 69 69
66 66 66 66 66 66 66 67 67 67 65 62 58 57 65 69 71 70 69 69 68 67
65 64 64 64 63 64 66 65 67 64 61 58 54 52 57 67 68 67 65 61 61 61
61 64 64 64 62 62 65 64 61 58 55 53 50 47 50 58 61 61 60 59 58 49
57 58 59 59 61 62 58 56 55 52 49 48 48 44 43 47 53 56 53 52 51 51

GFSNIL_sfc_30mbdewp_105.txt.gz
Dewpoint
67 65 64 64 68 69 67 67 69 68 67 67 69 68 69 68 66 67 66 67 69 66
67 67 66 68 70 69 67 69 69 67 67 67 68 68 69 68 68 68 68 66 66 66
66 66 66 67 67 69 69 68 70 68 68 68 68 69 69 66 67 67 67 63 64 68
63 63 65 64 65 66 67 68 68 69 69 68 69 69 70 70 69 68 67 67 67 65
65 64 62 64 64 66 68 69 69 69 68 68 68 69 69 70 65 66 66 66 66 66
65 64 63 62 64 65 67 68 68 68 68 68 68 67 69 69 67 66 65 65 66 66
67 65 65 67 64 65 67 67 67 68 68 68 67 68 67 68 68 67 66 66 68 67
69 68 67 67 68 65 65 66 67 67 69 67 66 65 69 67 68 69 67 66 67 66
69 69 69 68 69 69 68 67 67 67 68 68 67 64 65 68 69 69 69 69 66 66
68 67 69 70 70 69 69 69 69 69 70 70 68 60 63 67 69 68 70 69 69 69
67 67 68 68 68 68 69 68 69 68 67 64 60 55 58 64 71 71 72 71 71 70
67 67 66 65 66 66 67 67 66 65 63 60 57 49 52 61 70 69 67 65 60 63
66 65 64 64 64 64 65 64 63 59 58 53 53 45 48 55 64 65 62 58 54 50
61 61 63 63 64 63 62 60 59 56 53 51 49 43 43 47 55 56 58 57 55 52

GFSNIL_sfc_30mbdewp_111.txt.gz
Dewpoint
69 69 68 68 68 65 64 68 69 71 69 69 71 70 71 69 71 69 68 67 69 70
69 69 69 69 69 67 64 66 69 70 70 70 71 70 70 70 69 69 66 68 69 69
69 69 69 69 68 63 64 61 68 70 69 70 69 68 70 70 68 70 69 70 67 68
69 69 69 69 69 67 65 68 69 69 69 70 68 70 70 70 68 69 69 69 68 67
69 69 69 69 68 66 67 69 70 67 70 69 69 70 70 69 71 69 68 68 68 68
68 68 67 68 69 69 68 71 71 70 69 70 70 69 70 71 70 69 70 69 68 67
68 68 68 68 66 70 70 69 69 70 70 69 70 68 70 71 70 69 69 70 70 68
66 69 69 69 67 69 70 69 69 69 70 68 66 64 65 68 71 69 68 69 69 70
68 67 68 69 69 69 69 68 68 68 69 64 61 59 62 66 68 70 69 69 70 66
67 66 67 67 68 68 67 68 67 69 64 58 55 55 59 63 66 69 70 70 69 62
68 67 67 66 66 67 69 68 68 65 63 56 50 52 56 60 66 65 63 64 60 54
68 66 66 66 66 67 68 65 64 62 59 53 47 50 56 65 66 62 57 56 55 51
67 67 66 66 66 67 64 62 59 56 55 49 43 46 53 62 65 57 51 50 49 49
66 66 65 65 65 64 61 58 56 53 48 47 44 41 46 52 55 58 57 54 48 46

GFSNIL_sfc_30mbdewp_114.txt.gz
Dewpoint
69 67 67 66 66 66 66 67 68 70 70 70 70 69 71 69 70 69 68 67 69 65
69 68 68 68 67 67 65 66 68 70 69 70 70 70 70 70 69 69 67 69 69 69
69 68 68 68 68 68 65 65 66 69 70 69 70 70 70 70 68 69 69 69 67 68
69 69 68 67 67 66 63 63 64 68 68 69 70 69 70 70 68 68 69 69 68 67
69 69 67 67 67 68 65 64 67 68 68 68 70 70 69 69 71 68 67 67 68 67
68 69 68 68 68 67 66 65 67 68 66 68 70 70 70 70 70 70 69 69 68 68
68 68 68 68 69 67 66 65 67 70 70 70 69 67 68 70 71 69 69 70 69 69
69 69 69 69 69 70 69 69 70 69 69 66 66 65 66 67 68 70 68 69 70 69
69 69 69 68 68 69 69 68 69 69 66 63 61 58 61 65 67 69 69 68 66 64
67 67 67 68 68 68 68 69 68 65 62 59 58 56 58 61 64 68 69 69 65 58
67 68 67 67 67 68 68 68 68 64 61 56 54 54 58 63 66 65 64 62 58 53
68 67 66 66 66 67 67 67 66 63 58 53 49 53 63 66 62 60 57 54 51 50
67 66 66 65 66 66 64 62 60 56 50 45 48 51 60 66 60 53 49 48 49 49
67 66 65 65 65 63 60 57 54 50 48 44 43 46 52 60 58 53 50 46 45 46

GFSNIL_sfc_30mbdewp_117.txt.gz
Dewpoint
67 66 66 65 66 66 66 67 68 69 70 69 70 68 70 69 70 69 68 67 68 63
68 68 66 66 66 66 67 66 67 70 69 70 69 70 70 69 69 69 67 68 69 67
68 68 68 68 67 66 66 65 67 69 69 69 69 70 70 69 69 69 68 69 68 68
67 68 68 67 67 67 67 65 65 65 68 68 69 70 69 69 69 67 69 69 68 67
68 68 67 67 67 67 65 64 63 65 68 67 69 69 69 69 69 69 67 67 68 67
68 68 67 67 67 67 67 65 65 68 67 67 68 70 70 69 69 69 69 68 68 67
68 68 68 68 67 67 67 66 65 67 68 68 70 68 68 69 70 70 69 69 69 69
69 69 69 68 68 68 68 66 66 68 69 68 67 66 66 67 68 64 69 69 69 68
69 69 69 69 68 69 69 69 69 69 67 64 61 59 63 64 66 68 69 68 67 66
69 68 68 68 69 68 68 68 67 66 63 61 60 57 58 61 64 66 69 68 65 59
68 67 68 68 68 68 68 68 67 65 62 59 57 56 58 60 64 66 64 65 60 57
68 67 67 66 66 67 68 68 66 64 61 59 57 55 61 65 63 60 57 55 55 56
67 67 66 66 66 66 65 64 62 59 56 55 55 55 62 63 60 57 54 52 51 51
67 66 66 66 65 62 60 57 54 50 46 44 45 50 60 59 56 54 51 48 46 48

GFSNIL_sfc_30mbdewp_123.txt.gz
Dewpoint
70 68 68 68 68 67 68 68 71 70 71 70 71 72 72 71 70 70 70 71 71 68
69 69 67 69 70 68 69 69 70 70 70 71 71 72 72 69 71 71 71 69 70 70
69 69 69 70 69 69 69 69 69 69 70 70 71 71 72 71 71 71 70 69 71 71
68 69 69 69 69 70 69 69 68 69 69 70 71 71 72 72 71 71 70 70 71 70
68 69 68 69 69 70 70 70 70 68 68 68 70 71 71 70 68 70 69 69 70 70
66 67 67 68 69 69 70 69 69 67 67 67 67 70 71 72 70 68 69 70 70 69
66 66 67 68 69 69 70 69 68 68 67 67 69 69 70 71 71 71 70 70 70 70
68 68 68 68 69 69 70 69 70 69 68 69 70 69 70 70 70 70 70 70 71 71
69 69 69 69 69 70 70 70 70 69 69 69 69 64 65 67 69 69 69 67 68 71
70 70 69 69 70 69 70 71 70 70 70 69 68 60 60 61 66 68 69 69 70 70
69 69 69 69 69 69 69 67 70 70 68 67 65 60 59 60 64 66 68 69 70 70
67 67 67 67 68 69 69 68 67 68 68 67 65 60 60 64 66 65 64 64 63 65
67 67 67 67 67 68 68 68 68 66 66 62 62 59 58 62 64 62 59 57 56 53
68 68 68 67 67 66 65 64 62 59 57 57 57 59 60 59 63 62 59 58 56 52

GFSNIL_sfc_30mbdewp_129.txt.gz
Dewpoint
67 67 66 66 64 67 64 66 68 68 68 69 69 68 68 67 68 68 67 67 68 66
68 67 65 69 68 66 66 68 67 67 68 70 69 70 67 67 67 66 67 66 67 67
66 67 68 68 66 67 69 68 69 68 68 69 69 68 69 68 68 67 66 65 67 65
64 66 68 67 68 68 68 69 69 70 70 69 68 70 70 71 69 68 68 67 67 67
64 64 64 66 67 68 68 69 69 70 70 69 69 69 69 70 69 68 68 67 66 67
64 64 64 64 66 67 67 68 68 68 70 70 68 68 69 69 69 68 68 65 67 68
65 64 64 65 66 66 67 68 68 68 68 69 69 67 67 67 68 68 68 68 68 68
66 67 66 66 66 67 68 68 68 68 68 69 69 66 67 67 68 69 69 68 68 68
67 68 70 70 70 70 69 70 70 69 69 69 67 66 68 68 67 68 69 69 70 69
69 69 71 70 70 70 70 69 69 70 70 70 70 66 66 66 67 67 67 67 69 69
69 68 70 70 70 71 70 70 70 71 70 70 70 65 64 63 67 68 68 69 69 69
70 70 70 70 70 70 71 71 70 70 69 69 69 62 61 62 66 66 67 68 63 63
68 67 66 67 67 67 68 69 70 70 70 68 63 59 60 62 65 66 65 63 59 51
68 68 68 68 68 66 64 61 59 58 57 56 56 57 58 59 62 63 63 60 58 54

GFSNIL_sfc_30mbdewp_132.txt.gz
Dewpoint
70 69 68 68 67 68 66 69 70 70 69 71 70 70 70 70 71 70 69 68 69 68
70 70 67 69 70 69 66 70 65 67 70 70 71 71 70 70 70 68 69 70 69 69
69 70 70 70 67 69 71 68 72 70 70 70 70 71 71 71 70 69 68 69 69 69
68 69 70 70 70 69 70 68 70 70 70 71 71 71 71 72 71 69 70 70 69 68
68 67 68 70 70 71 70 70 70 70 71 71 71 70 71 71 71 70 69 69 69 68
66 67 67 69 69 70 70 69 70 70 70 70 70 70 70 70 71 70 70 69 68 68
67 66 66 66 68 69 70 70 70 70 70 70 71 71 70 70 70 70 70 70 69 69
68 68 68 69 69 69 70 70 71 71 71 70 70 69 70 69 69 69 70 71 70 69
70 70 70 70 69 70 70 71 71 71 71 70 69 67 67 68 69 68 69 69 70 71
70 69 70 71 72 72 71 71 72 72 72 72 72 67 67 67 68 69 69 69 68 69
69 70 71 71 71 71 71 72 71 71 71 71 71 67 66 65 67 68 69 69 70 69
70 69 69 69 70 70 70 71 70 71 71 70 70 63 61 64 66 68 68 65 56 60
69 68 67 67 67 69 69 68 67 61 59 61 60 57 59 63 67 66 65 62 56 54
68 68 68 68 67 66 64 61 58 57 57 56 56 56 58 59 63 63 64 62 58 56

GFSNIL_sfc_30mbdewp_138.txt.gz
Dewpoint
66 64 65 66 67 68 68 69 71 71 70 70 71 70 71 70 69 70 69 67 66 68
68 67 66 68 70 68 69 69 69 67 64 63 70 70 70 69 69 70 69 68 69 69
69 69 69 69 69 69 69 68 66 64 65 63 69 69 70 69 70 69 69 69 69 68
69 69 70 70 68 68 69 69 65 63 69 69 70 70 70 69 70 69 69 69 69 68
69 69 68 69 69 68 69 68 66 66 69 69 70 71 71 70 70 70 70 69 69 68
69 68 67 68 69 68 67 70 68 68 69 70 70 70 70 70 70 70 70 70 70 69
69 68 68 69 69 69 69 69 70 70 70 70 69 69 69 69 70 70 70 70 70 69
68 68 68 68 69 69 69 70 69 69 70 70 70 70 70 70 70 70 69 70 70 70
67 68 67 67 68 69 70 70 70 69 69 69 71 71 69 67 67 69 69 68 69 70
68 67 67 68 68 68 68 70 69 69 69 69 70 67 68 68 67 68 68 68 69 69
69 68 69 68 68 68 69 68 69 69 69 68 64 65 65 66 67 67 65 64 65 64
68 68 68 68 68 69 69 66 64 64 66 64 61 61 63 66 67 64 59 57 56 54
69 68 68 68 66 65 64 62 61 59 59 59 59 57 60 65 67 61 57 56 56 56
68 67 66 65 64 62 61 60 58 57 56 55 56 56 58 60 63 64 61 58 57 56

GFSNIL_sfc_30mbdewp_144.txt.gz
Dewpoint
67 65 65 65 65 66 67 68 69 69 69 69 70 71 70 70 70 69 69 69 68 67
67 66 64 64 66 67 68 68 69 70 70 70 70 70 70 70 69 69 69 69 68 68
66 66 66 65 64 67 68 69 69 69 69 69 67 69 70 70 70 69 69 69 69 69
67 67 67 66 66 68 69 68 68 68 67 67 65 65 69 70 70 69 69 69 69 69
67 67 67 67 67 68 69 69 68 68 66 65 68 69 69 69 70 69 69 69 70 69
67 67 67 68 68 68 69 69 69 68 67 66 68 69 70 70 70 70 70 70 69 70
67 68 68 68 68 69 69 68 68 68 67 67 67 70 70 70 70 70 70 70 71 70
67 68 68 68 68 69 69 68 68 69 69 69 70 70 70 69 69 69 69 70 70 70
68 69 68 68 68 68 68 69 69 68 68 68 70 70 69 69 69 69 68 68 69 70
67 67 68 68 68 68 68 68 68 68 69 68 69 67 68 69 69 68 68 68 68 69
67 67 67 67 68 68 68 68 69 69 69 67 63 64 64 65 68 67 64 62 62 62
66 66 66 66 67 68 68 67 67 66 66 64 62 61 62 66 67 62 59 58 58 58
65 65 67 67 66 66 65 63 62 61 61 61 61 59 62 65 64 60 58 58 58 58
66 66 67 66 65 64 62 61 60 58 58 57 57 59 61 64 64 60 59 58 57 57

GFSNIL_sfc_30mbdewp_147.txt.gz
Dewpoint
69 67 66 67 66 66 67 67 71 71 71 71 71 71 72 71 71 72 71 71 71 68
69 68 66 68 69 67 69 69 70 71 71 72 72 72 72 71 71 71 70 71 71 71
67 68 68 69 68 68 69 70 71 71 71 71 72 72 72 72 71 71 71 70 71 71
67 67 68 68 68 68 69 71 71 71 71 71 70 70 70 71 71 71 71 71 71 71
67 68 67 68 68 69 69 70 71 71 71 70 69 69 70 69 69 70 70 70 71 70
67 67 67 67 68 69 69 70 71 71 70 70 69 69 70 70 71 70 71 71 70 70
67 66 67 67 68 68 69 69 70 71 71 70 70 69 70 71 71 70 70 71 71 71
67 67 68 68 69 69 69 69 70 70 70 70 71 70 70 70 71 70 70 70 71 71
68 68 69 69 69 70 69 70 70 70 70 70 70 69 70 70 70 71 70 70 70 71
70 69 70 70 70 70 70 70 70 70 70 70 71 68 68 69 71 71 70 70 70 69
69 69 70 70 70 70 70 70 70 70 70 70 67 64 65 66 71 70 69 67 67 67
68 68 68 68 68 69 69 70 70 70 70 67 63 62 63 65 69 66 64 64 63 63
66 67 66 67 68 68 68 66 65 64 64 63 62 61 63 65 65 61 61 61 60 58
67 66 66 66 67 66 64 62 61 60 60 60 62 62 63 65 63 61 61 60 60 59

GFSNIL_sfc_30mbdewp_150.txt.gz
Dewpoint
69 65 64 64 61 63 62 63 65 70 70 71 71 71 71 69 69 69 68 69 69 65
69 68 64 65 66 65 66 65 69 69 69 70 70 71 70 70 69 69 69 68 69 68
67 68 67 68 67 66 67 69 68 69 69 68 69 71 72 68 69 68 68 67 69 69
66 66 68 67 68 68 68 68 70 69 69 69 69 70 71 70 68 68 68 68 69 69
66 66 65 67 67 67 68 68 69 69 70 70 69 70 70 69 67 67 68 68 68 68
66 66 66 65 67 67 68 68 67 69 70 69 68 68 69 70 68 67 68 68 68 69
66 66 66 66 67 67 68 68 67 68 69 68 68 68 68 69 68 68 68 69 69 68
67 67 67 66 67 68 68 68 68 68 69 67 67 67 68 68 67 68 68 69 69 68
67 68 68 68 69 69 69 69 69 68 68 67 66 65 68 68 68 68 68 67 68 69
69 69 69 70 70 70 70 70 70 69 69 68 68 68 68 69 69 69 70 68 69 69
69 69 70 71 71 70 70 70 70 70 69 69 69 66 67 68 70 69 70 70 69 69
68 69 69 70 70 70 71 71 70 70 70 70 68 64 65 68 70 70 68 67 67 67
67 67 67 68 70 71 70 70 70 70 71 70 67 62 64 68 68 67 65 65 63 59
68 67 67 67 68 69 69 68 66 64 64 66 66 64 63 67 67 65 63 63 62 60